www.pogodaiklimat.ru

Погода и климат >> Архив погоды >> Малайзия >> Alor Star


ПОГОДА в Alor Star

  • Прогноз погоды в Alor Star
  • Монитор погоды в Alor Star
  • Климат города

АРХИВ ПОГОДЫ в Alor Star

Время (UTC), дата Ветер
(напр.,м/с)
 
Видим.   Явления Облачность Т
(С)
Тd
(С)
f
(%)
Тe
(С)
Тes
(С)
Комфортность P
(гПа)
Po
(гПа)
Тmin
(С)
Tmax
(С)
R
(мм)
R24
(мм)
S
(см)
00 11.11 штиль 0 14 км мгла 9/1 500 м
[Cb cap Ac lent Ci sp]
+24.8 +24.0 95 +34 +34 очень
душно
1009.7 1009.2 +24.2
06 11.11 СВ 3 16 км мгла 9/1 600 м
[Cu hum Ac lent Ci sp]
+32.2 +25.0 66 +46 +53 опасность
перегрева
1008.9 1008.4
12 11.11 СВ 2 14 км мгла 9/4 900 м
[Sc Ac lent Ci sp]
+29.1 +24.0 74 +40 +40 очень
душно
1009.6 1009.1 +33.0
18 11.11 С 2 12 км мгла 9/3 900 м
[Sc Ac lent Ci sp]
+26.0 +24.4 91 +36 +36 очень
душно
1010.3 1009.8
00 12.11 С 2 12 км мгла 9/3 500 м
[Cb cap Ac lent Ci sp]
+25.7 +24.0 90 +35 +36 очень
душно
1010.0 1009.5 +24.8
06 12.11 Ю 2 12 км мгла 9/3 600 м
[Cu med, cong Ac lent Ci sp]
+32.8 +25.7 66 +48 +55 опасность
перегрева
1007.9 1007.4
12 12.11 ЮВ 1 10 км зарница {гроза, ливн. осадки} 9/4 500 м
[Cb cap Ac lent Ci sp]
+27.9 +26.0 89 +42 +42 опасность
перегрева
1008.3 1007.8 +33.5 0.2
18 12.11 штиль 0 10 км мгла 9/3 900 м
[Sc Ac lent Ci sp]
+26.3 +25.3 94 +38 +38 очень
душно
1009.5 1009.0
00 13.11 В 1 8000 м мгла 9/1 600 м
[Cu hum Ac lent Ci sp]
+25.8 +24.6 93 +36 +36 очень
душно
1008.7 1008.2 +25.0 0.2
06 13.11 В 3 12 км мгла 9/3 600 м
[Sc Ac lent Ci fib]
+32.5 +25.2 65 +46 +53 опасность
перегрева
1006.7 1006.2
12 13.11 СВ 1 6000 м гроза, ливневой дождь 10/5 240 м
[Cb cap Ac As Cs]
+26.6 +25.3 93 +39 +39 очень
душно
1007.3 1006.8 +33.3 7
18 13.11 В 1 10 км мгла 9/4 900 м
[Sc Ac lent Ci sp]
+25.6 +24.7 95 +36 +36 очень
душно
1008.2 1007.7 0.2
00 14.11 штиль 0 13 км мгла 9/3 500 м
[Cb cap Ac lent Ci fib]
+26.0 +25.1 95 +37 +38 очень
душно
1009.2 1008.7 +25.3 7
06 14.11 В 4 15 км мгла 9/4 540 м
[Cu med, cong Ac lent Ci sp]
+31.6 +25.1 69 +46 +50 опасность
перегрева
1007.9 1007.4
12 14.11 СВ 2 12 км мгла 9/3 900 м
[Sc Ac lent Cs]
+27.8 +23.6 78 +38 +38 очень
душно
1008.4 1007.9 +32.4
18 14.11 С 1 18 км мгла 9/3 900 м
[Sc Ac lent Ci fib]
+25.4 +23.8 91 +35 +35 очень
душно
1009.0 1008.5
00 15.11 С 1 10 км мгла 9/4 500 м
[Cb cap Ac lent Ci sp]
+25.5 +24.1 92 +35 +35 очень
душно
1009.8 1009.3 +25.0
06 15.11 ЮВ 6 6000 м гроза, ливневой дождь 9/5 240 м
[Cb cap Ac lent Ci sp]
+28.3 +24.8 81 +40 +42 очень
душно
1009.2 1008.7 0.0
12 15.11 В 2 10 км зарница 9/4 500 м
[Cb cap Ac lent Cs]
+26.2 +25.7 97 +39 +39 очень
душно
1009.9 1009.4 +32.9 6
18 15.11 штиль 0 12 км мгла 9/1 900 м
[Sc Ac lent Cs]
+24.8 +24.4 98 +35 +35 очень
душно
1010.3 1009.8
00 16.11 В 1 6000 м дымка 9/4 150 м
[Sc Ac lent Ci sp]
+24.5 +24.4 99 +34 +34 очень
душно
1010.7 1010.2 +24.5 6
06 16.11 ЮЗ 2 12 км мгла 9/4 600 м
[Cu med, cong Ac lent Ci sp]
+32.5 +25.4 66 +47 +53 опасность
перегрева
1008.7 1008.2
12 16.11 Ю 1 6000 м гроза, ливневой дождь 9/5 480 м
[Cb cap Ac lent Cs]
+25.2 +24.4 95 +35 +35 очень
душно
1009.6 1009.1 +33.3 31
18 16.11 штиль 0 10 км дымка 9/1 900 м
[Sc Ac lent Ci sp]
+25.6 +25.2 98 +37 +37 очень
душно
1010.6 1010.1 4
00 17.11 штиль 0 2500 м дымка 8/4 <50 м
[Cb cap Ac lent Ci sp]
+25.4 +25.1 98 +36 +36 очень
душно
1011.0 1010.5 +24.5 34
06 17.11 З 2 14 км мгла 9/3 600 м
[Cu med, cong Ac lent Ci sp]
+32.4 +27.7 76 +52 +59 опасность
перегрева
1009.4 1008.9
12 17.11 З 2 12 км зарница 8/3 500 м
[Cb cap Ac lent Ci sp]
+29.5 +26.8 85 +46 +46 опасность
перегрева
1008.5 1008.0 +33.6
18 17.11 СВ 2 10 км мгла {гроза} 9/3 900 м
[Sc Ac lent Ci sp]
+25.8 +24.5 93 +36 +36 очень
душно
1010.4 1009.9 0.2

 

Местоположение метеостанции Alor Star (Малайзия): широта 6.20 долгота 100.40 высота над уровнем моря 5 м.

В архиве по умолчанию представлена погода в Alor Star за последнюю неделю. Архивные данные за месяц целиком и за предыдущие месяцы, начиная с января 2011 года, Вы можете получить, выбрав интересующий диапазон дат из раскрывающегося списка и нажав кнопку "Ввод!".


*Определитесь, кто Вы:
робот инопланетянин человек

Внимание! Время в таблицах - всемирное. Для получения местного времени необходимо прибавить поправку, которая в Alor Star равна 7 ч.

Смотрите также архив погоды в соседних городах и на ближайших метеорологических станциях:

Погода в Satun (Таиланд) (61 км)
Погода в Kho Hong Agromet (Таиланд) (61 км)
Погода в Sadao (Таиланд) (67 км)
Погода в Langkawi (Малайзия) (75 км)
Погода в Hat Yai (Таиланд) (80 км)
Погода в Butterworth Air Base (Малайзия) (81 км)
Погода в Penang (Малайзия) (101 км)
Погода в Yala Agromet (Таиланд) (104 км)
Погода в Pattani (Таиланд) (105 км)
Погода в Songkhla (Таиланд) (114 км)

Пояснения к столбцам:

Ветер - указаны скорость ветра в м/с - средняя за 10 мин, порывы в срок и между сроками (в фигурных скобках) и направление, откуда дует ветер: С - северный, СВ - северо-восточный, В - восточный, ЮВ - юго-восточный, Ю - южный, ЮЗ - юго-западный, З - западный, СЗ - северо-западный.
Видимость - горизонтальная дальность видимости в метрах или километрах. При видимости от 1 до 10 км при отсутствии осадков обычно наблюдается дымка, при ухудшении видимости до 1 км и менее - туман. В сухую погоду видимость может ухудшаться дымом, пылью или мглою.
Явления - указаны атмосферные явления, наблюдавшиеся в срок или в последний час перед сроком; фигурными скобками обозначены явления, наблюдавшиеся между сроками (за 1-3 часа до срока); квадратными скобками обозначены град или гололедные отложения с указанием их диаметра в мм.
Облачность - указаны через наклонную черту общая и нижняя облачность в баллах и высота нижней границы облаков в метрах; квадратными скобками обозначены формы облаков: Ci - перистые, Cs - перисто-слоистые, Cc - перисто-кучевые, Ac - высококучевые, As - высокослоистые, Sc - слоисто-кучевые, Ns - слоисто-дождевые, Cu - кучевые, Cb - кучево-дождевые. Подробнее классификацию облаков см. в Атласе облаков (PDF).
T - Температура воздуха - температура, измеренная на высоте 2 м над землей.
Td - Температура точки росы - температура, при понижении до которой содержащийся в воздухе водяной пар достигнет насыщения.
f - Относительная влажность воздуха - влажноcть воздуха, измеренная на высоте 2 м над землей.
Te - Эффективная температура - температура, которую ощущает одетый по сезону человек в тени. Характеристика душности погоды. При расчете учитывается влияние влажности воздуха и скорости ветра на теплоощущения человека.
Tes - Эффективная температура на солнце - температура, которую ощущает человек, с поправкой на солнечный нагрев. Характеристика знойности погоды. Зависит от высоты солнца над горизонтом, облачности и скорости ветра. Ночью, в пасмурную погоду, а также при ветре 12 м/с и более поправка равна нулю.
P - Атмосферное давление - приведенное к уровню моря атмосферное давление.
Po - Атмосферное давление - измеренное на уровне метеостанции атмосферное давление.
Tmin - Минимальная температура - минимум температуры воздуха на высоте 2 м над землей.
Tmax - Максимальная температура - максимум температуры воздуха на высоте 2 м над землей.
R - Количество осадков - Количество выпавших осадков за период времени, мм. При наведении курсора мыши на число - период времени, за который выпало указанное количество осадков.
R24 - Количество осадков - Количество выпавших осадков за 24 часа, мм.
S - Снежный покров - Высота снежного покрова, см. При наведении курсора мыши на число - состояние снежного покрова и степень покрытия местности в баллах.